This is the latest recevied weather packets stored in our database for station/object KA1JKB. If no packets are shown the sender has not sent any weather packets the latest 10 day(s).
| Time | Temp. | Humidity | Pressure | Rain* | Wind** | Luminosity | Snow |
|---|---|---|---|---|---|---|---|
| 1777662719 | 8.89° C | 60% | 1011.6 hPa | 0 mm | - | 186 W/m² | - |
| 1777662415 | 8.89° C | 63% | 1011.5 hPa | 0 mm | - | 229 W/m² | - |
| 1777662110 | 9.44° C | 60% | 1011.5 hPa | 0 mm | - | 197 W/m² | - |
| 1777661806 | 9.44° C | 62% | 1011.4 hPa | 0 mm | - | 194 W/m² | - |
| 1777661502 | 9.44° C | 61% | 1011.2 hPa | 0 mm | - | 222 W/m² | - |
| 1777661199 | 8.89° C | 63% | 1011.5 hPa | 0 mm | - | 260 W/m² | - |
| 1777660893 | 9.44° C | 61% | 1011.3 hPa | 0 mm | - | 209 W/m² | - |
| 1777660591 | 8.89° C | 61% | 1011 hPa | 0 mm | - | 209 W/m² | - |
| 1777660287 | 9.44° C | 55% | 1011.2 hPa | 0 mm | - | 276 W/m² | - |
| 1777659983 | 10° C | 56% | 1011 hPa | 0 mm | - | 408 W/m² | - |
| 1777659680 | 9.44° C | 63% | 1011 hPa | 0 mm | - | 446 W/m² | - |
| 1777659377 | 8.89° C | 64% | 1011 hPa | 0 mm | - | 383 W/m² | - |
| 1777659074 | 8.33° C | 62% | 1011 hPa | 0 mm | - | 336 W/m² | - |
| 1777658772 | 8.33° C | 61% | 1010.9 hPa | 0 mm | - | 204 W/m² | - |
| 1777658468 | 8.89° C | 60% | 1011 hPa | 0 mm | - | 106 W/m² | - |
| 1777658165 | 9.44° C | 57% | 1011.2 hPa | 0 mm | - | 112 W/m² | - |
| 1777657862 | 10° C | 59% | 1010.7 hPa | 0 mm | - | 220 W/m² | - |
| 1777657559 | 10° C | 59% | 1010.9 hPa | 0 mm | - | 274 W/m² | - |
| 1777657256 | 10° C | 58% | 1010.9 hPa | 0 mm | - | 265 W/m² | - |
| 1777656953 | 10° C | 62% | 1010.7 hPa | 0 mm | - | 343 W/m² | - |
| 1777656650 | 10° C | 59% | 1010.6 hPa | 0 mm | - | 324 W/m² | - |
| 1777656345 | 9.44° C | 62% | 1010.7 hPa | 0 mm | - | 391 W/m² | - |
| 1777656041 | 8.89° C | 60% | 1011 hPa | 0 mm | - | 354 W/m² | - |
| 1777655738 | 8.89° C | 62% | 1010.8 hPa | 0 mm | - | 341 W/m² | - |
| 1777655435 | 8.89° C | 61% | 1011 hPa | 0 mm | - | 375 W/m² | - |
* Rain latest hour (hover to see other rain measurements)
** Current wind speed in m/s (hover to see current wind gust speed)